Regional Weather Roundup
Issued by NWS

Home | Current Version | Previous Version | Graphics & Text | Print | Product List | Glossary On
Versions: 1 2 3 4 5 6 7 8 9 10 11 12 13 14 15 16 17 18 19 20 21 22 23 24 25 26 27 28 29 30 31 32 33 34 35 36 37 38 39 40 41 42 43 44 45 46 47 48 49 50
000
ASUS43 KOAX 301810
RWRNE

WEATHER ROUNDUP FOR NEBRASKA
NATIONAL WEATHER SERVICE OMAHA NE
100 PM CDT SAT MAY 30 2015

NOTES: SATELLITE DATA IS BEING USED TO AUGMENT CLOUD COVER ABOVE
       12000 FEET.
       "FAIR" INDICATES FEW OR NO CLOUDS BELOW 12,000 FEET WITH NO
       SIGNIFICANT WEATHER AND/OR OBSTRUCTIONS TO VISIBILITY.

  * THESE STATIONS DO NOT REPORT WEATHER SUCH AS RAIN...SNOW OR FOG.

NEZ001>004-019>022-054>056-301900-
NEBRASKA PANHANDLE

CITY           SKY/WX    TMP DP  RH WIND       PRES   REMARKS
SCOTTSBLUFF    PTSUNNY   61  49  64 SE13      30.25F
6HR MIN TEMP:  48; 6HR MAX TEMP:  61;

ALLIANCE       PTSUNNY   57  46  66 SE6       30.27F
6HR MIN TEMP:  38; 6HR MAX TEMP:  57;

CHADRON        PTSUNNY   59  46  62 S7        30.25F
6HR MIN TEMP:  37; 6HR MAX TEMP:  59;

KIMBALL          N/A    N/A N/A N/A MISG        N/A
SIDNEY         CLOUDY    56  46  69 S7        30.30S
6HR MIN TEMP:  46; 6HR MAX TEMP:  56;

$$

NEZ057>060-069>072-079>082-301900-
SOUTHWEST NEBRASKA

CITY           SKY/WX    TMP DP  RH WIND       PRES   REMARKS
NORTH PLATTE   SUNNY     57  36  45 N9        30.30F
6HR MIN TEMP:  37; 6HR MAX TEMP:  57;

IMPERIAL       SUNNY     57  39  51 VRB7      30.30F
6HR MIN TEMP:  43; 6HR MAX TEMP:  57;

LEXINGTON      SUNNY     59  38  47 N12       30.28S
MCCOOK         SUNNY     61  37  41 N14       30.28F
6HR MIN TEMP:  48; 6HR MAX TEMP:  61;

OGALLALA       SUNNY     56  40  54 NE6       30.30F
$$

NEZ005>010-023>029-035>040-094-301900-
NORTH CENTRAL NEBRASKA

CITY           SKY/WX    TMP DP  RH WIND       PRES   REMARKS
VALENTINE      SUNNY     56  32  40 E8        30.31F
6HR MIN TEMP:  36; 6HR MAX TEMP:  56;

AINSWORTH      SUNNY     55  38  51 N6        30.31S
BROKEN BOW     SUNNY     60  34  37 N13       30.27F
6HR MIN TEMP:  43; 6HR MAX TEMP:  60;

O`NEILL        SUNNY     56  44  62 N12       30.30S
ORD            SUNNY     58  40  51 N8G18     30.26F
6HR MIN TEMP:  42; 6HR MAX TEMP:  58;

THEDFORD       SUNNY     56  36  46 N6        30.31S
$$

NEZ041-046>049-061>064-073>077-083>087-301900-
SOUTH CENTRAL NEBRASKA

CITY           SKY/WX    TMP DP  RH WIND       PRES   REMARKS
GRAND ISLAND   SUNNY     61  41  47 N16G24    30.26S
6HR MIN TEMP:  47; 6HR MAX TEMP:  61;

AURORA         SUNNY     62  41  45 N14G24    30.25R
HASTINGS       SUNNY     61  45  55 N15G21    30.25S
6HR MIN TEMP:  48; 6HR MAX TEMP:  61;

HEBRON         CLOUDY    59  45  59 NE9G17    30.22F
HOLDREGE       SUNNY     59  42  53 N16G22    30.26F
KEARNEY *      MOSUNNY   59  43  55 N10G17    30.27S
YORK           SUNNY     63  45  51 N13G30    30.23F
$$

NEZ011>018-030>034-042>045-301900-
NORTHEAST NEBRASKA

CITY           SKY/WX    TMP DP  RH WIND       PRES   REMARKS
NORFOLK        SUNNY     61  40  45 NE20G25   30.24F
6HR MIN TEMP:  47; 6HR MAX TEMP:  61;

ALBION         SUNNY     57  42  56 N12G17    30.26F
BLAIR          CLOUDY    58  46  62 N14G20    30.20S
COLUMBUS *     SUNNY     63  39  42 N17G28    30.24F
FREMONT        PTSUNNY   62  42  46 N13G20    30.21F
TEKAMAH        SUNNY     64  45  49 N23G30    30.20F
6HR MIN TEMP:  53; 6HR MAX TEMP:  65;

WAYNE          SUNNY     59  44  57 NE13G20   30.25F
$$

NEZ050>053-065>068-078-088>093-301900-
SOUTHEAST NEBRASKA

CITY           SKY/WX    TMP DP  RH WIND       PRES   REMARKS
LINCOLN        CLOUDY    62  46  55 N18G26    30.22R
6HR MIN TEMP:  51; 6HR MAX TEMP:  62; 6HR PCP: TRACE;

OMAHA EPPLEY   PTSUNNY   62  47  57 N17       30.20R
6HR MIN TEMP:  52; 6HR MAX TEMP:  62;

BEATRICE       CLOUDY    59  48  67 N10       30.20F
FALLS CITY     CLOUDY    57  51  80 N10G18    30.16R
6HR MIN TEMP:  52; 6HR MAX TEMP:  58;

NEBRASKA CITY  CLOUDY    57  48  72 N12       30.18S
PLATTSMOUTH    CLOUDY    58  47  67 N9G17     30.19S
$$

NEZ044-045-051>053-067-301900-
OMAHA AREA

CITY           SKY/WX    TMP DP  RH WIND       PRES   REMARKS
OMAHA EPPLEY   PTSUNNY   62  47  57 N17       30.20R
6HR MIN TEMP:  52; 6HR MAX TEMP:  62;

BLAIR          CLOUDY    58  46  62 N14G20    30.20S
FREMONT        PTSUNNY   62  42  46 N13G20    30.21F
MILLARD        CLOUDY    59  46  62 N12       30.21R
OFFUTT AFB     PTSUNNY   60  48  63 N13G23    30.19S
PLATTSMOUTH    CLOUDY    58  47  67 N9G17     30.19S
WAHOO          CLOUDY    61  45  54 N17G24    30.21S
$$


USA.gov is the U.S. government's official web portal to all federal, state and local government web resources and services.